Weather History for Topeka Forbes, KS

Change the Weather History Date:

Tuesday, July 16, 2013

  Actual Average Record
Temperature  
Mean Temperature 81 °F -  
Max Temperature 93 °F 88 °F 100 °F (1980)
Min Temperature 69 °F 67 °F 50 °F (2014)
Cooling Degree Days 16    
Growing Degree Days 31 (Base 50)    
Moisture  
Dew Point 64 °F    
Average Humidity 59    
Maximum Humidity 87    
Minimum Humidity 34    
Precipitation  
Precipitation 0.00 in - - ()
Sea Level Pressure  
Sea Level Pressure 30.20 in    
Wind  
Wind Speed 2 mph (SSE)    
Max Wind Speed 9 mph    
Max Gust Speed -    
Visibility 10 miles    
Events      
Averages and records for this station are not official NWS values.
T = Trace of Precipitation, MM = Missing Value Source: NWS Daily Summary

Daily Weather History Graph

Daily Weather History Graph

Search for Another Location

Airport:

Trip Planner

Search our weather history database for the weather conditions in past years. The results will help you decide how hot, cold, wet, or windy it might be!

Date:

Astronomy

Jul. 16, 2013 Rise Set
Actual Time 6:10 AM CDT 8:46 PM CDT
Civil Twilight 5:39 AM CDT 9:17 PM CDT
Nautical Twilight 5:00 AM CDT 9:56 PM CDT
Astronomical Twilight 4:17 AM CDT 10:39 PM CDT
Moon 2:30 PM CDT (7/16) 12:39 AM CDT (7/16)
Length of Visible Light 15h 38m
Length of Day
14h 36m
First Quarter, 56% of the Moon is Illuminated
Jul 16
First Quarter
Jul 22
Full
Jul 29
Last Quarter
Aug 6
New
Aug 14
First Quarter

Hourly Weather History & Observations

Time (CDT) Temp. Heat Index Dew Point Humidity Pressure Visibility Wind Dir Wind Speed Gust Speed Precip Events Conditions
12:53 AM 73.9 °F - 66.0 °F 76% 30.16 in 10.0 mi Calm Calm - N/A   Overcast
1:53 AM 73.0 °F - 66.0 °F 79% 30.16 in 10.0 mi Calm Calm - N/A   Mostly Cloudy
2:53 AM 72.0 °F - 66.9 °F 84% 30.17 in 10.0 mi Calm Calm - N/A   Mostly Cloudy
3:53 AM 71.1 °F - 66.0 °F 84% 30.17 in 10.0 mi Calm Calm - N/A   Partly Cloudy
4:53 AM 69.1 °F - 64.9 °F 87% 30.17 in 10.0 mi SSW 4.6 mph - N/A   Partly Cloudy
5:53 AM 70.0 °F - 66.0 °F 87% 30.18 in 10.0 mi Calm Calm - N/A   Partly Cloudy
6:53 AM 69.1 °F - 64.9 °F 87% 30.21 in 10.0 mi Calm Calm - N/A   Clear
7:53 AM 75.0 °F - 66.9 °F 76% 30.22 in 10.0 mi Calm Calm - N/A   Clear
8:53 AM 80.1 °F 81.2 °F 62.1 °F 54% 30.23 in 10.0 mi NNE 4.6 mph - N/A   Clear
9:53 AM 82.0 °F 82.4 °F 60.1 °F 47% 30.24 in 10.0 mi Calm Calm - N/A   Clear
10:53 AM 84.9 °F 85.9 °F 63.0 °F 48% 30.24 in 10.0 mi Variable 3.5 mph - N/A   Clear
11:53 AM 87.1 °F 88.3 °F 64.0 °F 46% 30.24 in 10.0 mi Variable 3.5 mph - N/A   Partly Cloudy
12:53 PM 87.1 °F 88.9 °F 64.9 °F 48% 30.23 in 10.0 mi Variable 4.6 mph - N/A   Scattered Clouds
1:53 PM 89.1 °F 90.3 °F 64.0 °F 43% 30.21 in 10.0 mi East 8.1 mph - N/A   Scattered Clouds
2:53 PM 93.0 °F 94.2 °F 63.0 °F 37% 30.20 in 10.0 mi SSW 8.1 mph - N/A   Scattered Clouds
3:53 PM 90.0 °F 90.3 °F 62.1 °F 39% 30.19 in 10.0 mi South 4.6 mph - N/A   Scattered Clouds
4:53 PM 93.0 °F 93.0 °F 61.0 °F 34% 30.18 in 10.0 mi South 9.2 mph - N/A   Clear
5:53 PM 93.0 °F 93.0 °F 61.0 °F 34% 30.18 in 10.0 mi SE 6.9 mph - N/A   Clear
6:53 PM 93.0 °F 93.8 °F 62.1 °F 36% 30.18 in 10.0 mi SSW 6.9 mph - N/A   Partly Cloudy
7:53 PM 89.1 °F 89.3 °F 62.1 °F 40% 30.18 in 10.0 mi SSE 4.6 mph - N/A   Clear
8:53 PM 84.9 °F 86.6 °F 64.9 °F 51% 30.19 in 10.0 mi East 3.5 mph - N/A   Clear
9:53 PM 80.1 °F 82.1 °F 66.0 °F 62% 30.21 in 10.0 mi SE 3.5 mph - N/A   Clear
10:53 PM 78.1 °F - 64.9 °F 64% 30.23 in 10.0 mi South 5.8 mph - N/A   Clear
11:53 PM 77.0 °F - 66.0 °F 69% 30.24 in 10.0 mi South 4.6 mph - N/A   Mostly Cloudy